TimeEST,TemperatureF,Dew PointF,Humidity,Sea Level PressureIn,VisibilityMPH,Wind Direction,Wind SpeedMPH,Gust SpeedMPH,PrecipitationIn,Events,Conditions,WindDirDegrees,DateUTC
12:53 AM,44.1,24.1,45,30.11,10.0,South,5.8,-,N/A,,Clear,180,2013-12-29 05:53:00
1:53 AM,45.0,23.0,42,30.07,10.0,SE,6.9,-,N/A,,Clear,140,2013-12-29 06:53:00
2:53 AM,45.0,24.1,44,30.09,10.0,South,4.6,-,N/A,,Partly Cloudy,190,2013-12-29 07:53:00
3:53 AM,46.0,23.0,40,30.06,10.0,SE,8.1,-,N/A,,Overcast,140,2013-12-29 08:53:00
4:53 AM,46.0,24.1,42,30.05,10.0,SSW,8.1,-,N/A,,Overcast,210,2013-12-29 09:53:00
5:53 AM,42.1,35.1,76,30.04,10.0,SSE,5.8,-,0.01,Rain,Light Rain,160,2013-12-29 10:53:00
6:53 AM,41.0,37.0,86,30.01,10.0,ENE,6.9,-,0.03,Rain,Light Rain,70,2013-12-29 11:53:00
7:53 AM,41.0,37.0,86,29.95,10.0,NE,8.1,-,0.09,Rain,Light Rain,50,2013-12-29 12:53:00
8:53 AM,43.0,41.0,93,29.91,4.0,NE,5.8,-,0.10,Rain,Rain,40,2013-12-29 13:53:00
9:22 AM,42.1,41.0,96,29.85,2.0,NNW,8.1,-,0.09,Rain,Rain,340,2013-12-29 14:22:00
9:42 AM,41.0,39.9,96,29.84,1.8,NNW,6.9,-,0.16,Rain,Rain,330,2013-12-29 14:42:00
9:45 AM,41.0,39.9,96,29.84,1.8,NNW,6.9,-,0.18,Rain,Rain,330,2013-12-29 14:45:00
9:53 AM,41.0,39.9,96,29.89,1.8,NNW,9.2,-,0.20,Rain,Rain,330,2013-12-29 14:53:00
10:27 AM,39.9,39.0,97,29.84,2.0,North,10.4,-,0.12,Rain,Rain,350,2013-12-29 15:27:00
10:38 AM,39.9,39.0,97,29.82,1.5,North,10.4,-,0.16,Rain,Rain,360,2013-12-29 15:38:00
10:53 AM,39.9,39.0,97,29.85,2.0,North,11.5,-,0.21,Rain,Rain,360,2013-12-29 15:53:00
11:02 AM,39.9,39.0,97,29.78,1.8,North,9.2,-,0.03,Rain,Rain,360,2013-12-29 16:02:00
11:12 AM,39.9,39.0,97,29.78,2.0,North,9.2,-,0.05,Rain,Rain,360,2013-12-29 16:12:00
11:22 AM,39.0,39.0,100,29.76,1.8,North,9.2,-,0.08,Rain,Rain,360,2013-12-29 16:22:00
11:31 AM,39.0,39.0,100,29.74,2.0,North,10.4,-,0.09,Rain,Light Rain,360,2013-12-29 16:31:00
11:53 AM,41.0,39.9,96,29.75,1.8,NNE,9.2,-,0.12,Rain,Rain,20,2013-12-29 16:53:00
12:19 PM,41.0,41.0,100,29.65,1.5,East,11.5,-,0.03,Rain,Light Rain,90,2013-12-29 17:19:00
12:38 PM,42.1,41.0,96,29.62,1.5,East,11.5,-,0.05,Rain,Light Rain,80,2013-12-29 17:38:00
12:46 PM,42.1,42.1,100,29.61,2.0,East,6.9,-,0.05,Rain,Light Rain,80,2013-12-29 17:46:00
12:53 PM,42.1,42.1,100,29.65,2.5,NE,5.8,-,0.05,Rain,Light Rain,40,2013-12-29 17:53:00
1:03 PM,42.1,42.1,100,29.59,3.0,North,5.8,-,0.00,Rain,Light Rain,360,2013-12-29 18:03:00
1:22 PM,42.1,42.1,100,29.58,2.5,NNW,8.1,-,0.01,Rain,Light Rain,330,2013-12-29 18:22:00
1:30 PM,41.0,41.0,100,29.59,1.0,NNW,8.1,-,0.01,Rain,Light Rain,330,2013-12-29 18:30:00
1:39 PM,41.0,39.9,96,29.59,1.5,NW,10.4,-,0.01,,Overcast,320,2013-12-29 18:39:00
1:53 PM,41.0,39.9,96,29.61,1.8,NNW,10.4,-,0.01,Rain,Light Rain,340,2013-12-29 18:53:00
2:11 PM,39.9,39.0,97,29.59,2.0,NW,11.5,-,0.01,Rain,Light Rain,320,2013-12-29 19:11:00
2:30 PM,39.9,39.0,97,29.59,3.0,NNW,9.2,-,0.01,Rain,Light Rain,330,2013-12-29 19:30:00
2:45 PM,39.9,39.0,97,29.59,4.0,NW,8.1,-,0.01,Rain,Light Rain,320,2013-12-29 19:45:00
2:53 PM,39.9,39.0,97,29.64,2.0,NW,8.1,-,0.01,Rain,Light Rain,310,2013-12-29 19:53:00
3:00 PM,39.9,39.0,97,29.60,4.0,NW,8.1,-,0.01,Rain,Light Rain,310,2013-12-29 20:00:00
3:16 PM,39.9,39.9,100,29.59,2.0,NW,5.8,-,0.04,Rain,Light Rain,320,2013-12-29 20:16:00
3:53 PM,41.0,39.9,96,29.61,3.0,NNW,8.1,-,0.05,,Overcast,340,2013-12-29 20:53:00
4:49 PM,42.8,41.0,93,29.62,5.0,WNW,6.9,-,N/A,,Overcast,290,2013-12-29 21:49:00
4:53 PM,42.1,41.0,96,29.66,6.0,West,6.9,-,N/A,,Overcast,280,2013-12-29 21:53:00
5:21 PM,42.1,41.0,96,29.64,10.0,WNW,8.1,-,N/A,,Overcast,300,2013-12-29 22:21:00
5:53 PM,42.1,39.9,92,29.70,10.0,WNW,8.1,-,N/A,,Overcast,300,2013-12-29 22:53:00
6:05 PM,42.1,39.9,92,29.67,10.0,NW,8.1,-,N/A,,Overcast,320,2013-12-29 23:05:00
6:53 PM,42.1,39.0,89,29.75,10.0,North,5.8,-,N/A,,Mostly Cloudy,360,2013-12-29 23:53:00
7:03 PM,43.0,39.0,86,29.72,10.0,North,-9999.0,-,N/A,,Scattered Clouds,0,2013-12-30 00:03:00
7:53 PM,42.1,37.9,85,29.80,10.0,East,6.9,-,N/A,,Mostly Cloudy,80,2013-12-30 00:53:00
8:13 PM,44.1,37.9,79,29.77,10.0,Calm,Calm,-,N/A,,Overcast,0,2013-12-30 01:13:00
8:50 PM,41.0,35.6,81,29.76,10.0,NW,6.9,-,N/A,,Scattered Clouds,310,2013-12-30 01:50:00
8:53 PM,39.9,36.0,86,29.80,10.0,NW,6.9,-,N/A,,Scattered Clouds,320,2013-12-30 01:53:00
9:19 PM,41.0,37.0,86,29.78,10.0,South,5.8,-,N/A,,Mostly Cloudy,190,2013-12-30 02:19:00
9:53 PM,43.0,37.0,80,29.83,10.0,SW,4.6,-,N/A,,Mostly Cloudy,220,2013-12-30 02:53:00
10:02 PM,42.1,37.0,82,29.79,10.0,SW,4.6,-,N/A,,Scattered Clouds,220,2013-12-30 03:02:00
10:53 PM,44.1,37.9,79,29.83,10.0,SW,8.1,-,N/A,,Overcast,220,2013-12-30 03:53:00
11:53 PM,45.0,37.9,76,29.84,10.0,SW,9.2,-,N/A,,Overcast,230,2013-12-30 04:53:00